TimeEDT,TemperatureF,Dew PointF,Humidity,Sea Level PressureIn,VisibilityMPH,Wind Direction,Wind SpeedMPH,Gust SpeedMPH,PrecipitationIn,Events,Conditions,WindDirDegrees,DateUTC
12:00 AM,62.1,53.8,74,30.09,-9999.0,NNE,18.4,-,N/A,,Unknown,20,2013-10-12 04:00:00
1:00 AM,60.8,53.6,77,30.09,-9999.0,North,16.1,-,N/A,,Unknown,10,2013-10-12 05:00:00
2:00 AM,61,54,72,30.09,,NNE,17.3,,,,,30,2013-10-12 06:00:00
2:00 AM,61.2,54.3,78,30.09,-9999.0,NNE,17.3,-,N/A,,Unknown,30,2013-10-12 06:00:00
3:00 AM,61.2,54.7,79,30.09,-9999.0,NNE,15.0,-,N/A,,Unknown,30,2013-10-12 07:00:00
4:00 AM,62.1,51.8,69,30.09,-9999.0,NE,13.8,-,N/A,,Unknown,40,2013-10-12 08:00:00
5:00 AM,61.5,52.3,72,30.10,-9999.0,ENE,12.7,-,N/A,,Unknown,60,2013-10-12 09:00:00
6:00 AM,61.5,52.3,72,30.11,-9999.0,ENE,11.5,-,N/A,,Unknown,70,2013-10-12 10:00:00
7:00 AM,61.2,52.0,72,30.12,-9999.0,East,6.9,-,N/A,,Unknown,80,2013-10-12 11:00:00
8:00 AM,62,52,61,30.13,,ENE,9.2,,,,,70,2013-10-12 12:00:00
8:00 AM,62.2,52.0,69,30.13,-9999.0,ENE,9.2,-,N/A,,Unknown,70,2013-10-12 12:00:00
9:00 AM,62.8,52.2,68,30.14,-9999.0,ENE,9.2,-,N/A,,Unknown,60,2013-10-12 13:00:00
10:00 AM,62.6,53.2,71,30.14,-9999.0,NE,9.2,-,N/A,,Unknown,40,2013-10-12 14:00:00
11:00 AM,62.8,53.1,71,30.14,-9999.0,NNE,9.2,-,N/A,,Unknown,30,2013-10-12 15:00:00
12:00 PM,62.6,54.7,75,30.13,-9999.0,NNE,9.2,-,N/A,,Unknown,30,2013-10-12 16:00:00
1:00 PM,62.8,55.0,76,30.13,-9999.0,NNE,10.4,-,N/A,,Unknown,20,2013-10-12 17:00:00
2:00 PM,63,56,72,30.10,,North,11.5,,,,,10,2013-10-12 18:00:00
2:00 PM,63.0,56.3,79,30.10,-9999.0,North,11.5,-,N/A,,Unknown,10,2013-10-12 18:00:00
3:00 PM,63.7,56.3,77,30.10,-9999.0,NNE,9.2,-,N/A,,Unknown,20,2013-10-12 19:00:00
4:00 PM,66.2,55.0,67,30.08,-9999.0,North,9.2,-,N/A,,Unknown,10,2013-10-12 20:00:00
5:00 PM,65.7,56.8,73,30.07,-9999.0,North,9.2,-,N/A,,Unknown,10,2013-10-12 21:00:00
6:00 PM,66.4,57.6,73,30.07,-9999.0,North,10.4,-,N/A,,Unknown,10,2013-10-12 22:00:00
7:00 PM,66.4,57.9,74,30.08,-9999.0,North,10.4,-,N/A,,Unknown,350,2013-10-12 23:00:00
8:00 PM,66,55,59,30.10,,NNW,11.5,,,,,340,2013-10-13 00:00:00
8:00 PM,65.7,55.0,69,30.10,-9999.0,NNW,11.5,-,N/A,,Unknown,340,2013-10-13 00:00:00
9:00 PM,63.3,57.0,80,30.11,-9999.0,North,9.2,-,N/A,,Unknown,10,2013-10-13 01:00:00
10:00 PM,63.0,58.5,85,30.12,-9999.0,North,5.8,-,N/A,,Unknown,10,2013-10-13 02:00:00
11:00 PM,67.1,57.2,70,30.10,-9999.0,ESE,13.8,-,N/A,,Unknown,110,2013-10-13 03:00:00